Location: Platte
(43.3870°N, 98.8440°W)
Time: 16:38:04
(UTC-05:00)

Cosmos 1743 - Pass Details

Date: 21 May 2018
Orbit: 513 x 528 km, 82.6° (Epoch: 20 August)

Event Time Altitude Azimuth Distance (km) Brightness Sun altitude
Rises 21:34:33 0° 4° (N) 2,652 6.8 -6.2°
Reaches altitude 10° 21:37:01 10° 18° (NNE) 1,756 5.6 -6.6°
Maximum altitude 21:40:10 24° 74° (ENE) 1,107 4.1 -7.0°
Drops below altitude 10° 21:43:18 10° 129° (SE) 1,738 4.7 -7.5°
Enters shadow 21:43:24 10° 130° (SE) 1,767 4.7 -7.5°
